Regional Weather Roundup
Issued by NWS

Home | Current Version | Previous Version | Graphics & Text | Print | Product List | Glossary On
Versions: 1 2 3 4 5 6 7 8 9 10 11 12 13 14 15 16 17 18 19 20 21 22 23 24 25 26 27 28 29 30 31 32 33 34 35 36 37 38 39 40 41 42 43 44 45 46 47 48 49 50
000
ASUS43 KLOT 260303
RWRIL

ILLINOIS REGIONAL WEATHER ROUNDUP
NATIONAL WEATHER SERVICE CHICAGO/ROMEOVILLE IL
1000 PM CDT WED MAY 25 2016

NOTE: "FAIR" INDICATES FEW OR NO CLOUDS BELOW 12,000 FEET WITH NO
SIGNIFICANT WEATHER AND/OR OBSTRUCTIONS TO VISIBILITY.

* THESE STATIONS ARE NOT UNDER NWS QUALITY CONTROL. THEY ALSO MAY NOT
  REPORT WEATHER SUCH AS PRECIPITATION OR FOG.

ILZ001-002-007-009-015-016-024-260400-
NORTHWEST ILLINOIS

CITY           SKY/WX    TMP DP  RH WIND       PRES   REMARKS
MOLINE         CLEAR     69  61  75 CALM      29.89R
STERLING*      CLEAR     74  63  68 CALM      29.91R
$$

ILZ003-004-008-010-011-017-018-260400-
NORTH CENTRAL ILLINOIS

CITY           SKY/WX    TMP DP  RH WIND       PRES   REMARKS
ROCKFORD       MOCLDY    69  65  86 S5        29.94R
FREEPORT*      CLEAR     65  62  88 S5        29.92S
ROCHELLE*      PTCLDY    67  65  93 SE13      29.92S
$$

ILZ005-006-012>014-019>023-260400-
NORTHEAST ILLINOIS

CITY           SKY/WX    TMP DP  RH WIND       PRES   REMARKS
CHICAGO-OHARE  LGT RAIN  68  65  90 E5        29.94R
CHICAGO-MIDWAY CLOUDY    69  64  84 E8        29.95R
AURORA         PTCLDY    67  65  93 E6        29.94R
LANSING*       CLOUDY    67  63  85 NE8       29.97R
WAUKEGAN       CLOUDY    65  63  93 SE12      29.93F THUNDER
DUPAGE AIRPORT CLOUDY    67  64  90 SE7       29.94R
WHEELING       TSTM      66  64  93 E8        29.94R FOG
NORTHERLY ISL    N/A     61  58  90 MISG        N/A
NORTHERLY ISL    N/A     61  58  90 MISG        N/A
$$

LMZ740>746-260400-
SOUTHERN LAKE MICHIGAN

STATION/POSITION SKY/WX   TEMP    WIND        PRES    VSBY  WAVE
                          AIR SEA DIR/SP/G                  HT/PER
                          (F)     (DEG/KT/KT) (MB)    (MI)  (FT/S)
SOUTHERN BUOY              58 51  150/ 14/ 16 1013.4          1
WILMETTE HARBOR            62 56  330/  6/ 14   N/A           1
HARRISON CRIB              64     330/  5/  6   N/A
BURNHAM HARBOR             61     350/  5/ 10   N/A
CALUMET HARBOR                    300/  4/  7 1014.1R
BURNS HARBOR               62      50/  8/ 13 1014.9R
MICHIGAN CITY              63     330/ 11/ 12   N/A
MICHIGAN CITY 6N           65 60   10/  6/ 12   N/A           1/ 2
ST. JOSEPH                 63 60  360/  4/ 10   N/A           2
$$

ILZ025>027-034>036-040-047-049-050-058-095>099-260400-
WEST-CENTRAL ILLINOIS

CITY           SKY/WX    TMP DP  RH WIND       PRES   REMARKS
QUINCY         CLEAR     75  64  68 S7        29.93R
MACOMB*        PTCLDY    73  64  73 S7        29.94S
PITTSFIELD*    CLEAR     74  65  73 S8        29.96R
$$

ILZ028>032-037-038-041>044-048-051>054-059>061-260400-
CENTRAL ILLINOIS

CITY           SKY/WX    TMP DP  RH WIND       PRES   REMARKS
BLOOMINGTON    PTCLDY    74  67  78 S10       29.98R
DECATUR        CLOUDY    73  65  75 S13       29.98R
PEORIA         CLEAR     74  63  68 S6        29.93R
SPRINGFIELD    CLEAR     75  66  73 S13       29.95R
TAYLORVILLE    NOT AVBL
$$

ILZ033-039-045-046-055>057-062-063-260400-
EAST-CENTRAL ILLINOIS

CITY           SKY/WX    TMP DP  RH WIND       PRES   REMARKS
CHAMPAIGN      MOCLDY    71  64  78 S10       29.99R
MATTOON        CLOUDY    71  65  81 S8        29.99R
$$

ILZ079-100>102-260400-
SOUTHWEST ILLINOIS

CITY           SKY/WX    TMP DP  RH WIND       PRES   REMARKS
ALTON          CLEAR     72  64  78 S10       29.98R
BELLEVILLE     CLEAR     70  70  99 E3        29.98R
CAHOKIA*       CLEAR     75  65  70 S5        29.98R
SPARTA*        CLOUDY    72  67  85 S13G18    30.01R
$$

ILZ064>066-069>071-074>076-080>082-084>086-088>090-092>094-260400-
SOUTH-CENTRAL ILLINOIS

CITY           SKY/WX    TMP DP  RH WIND       PRES   REMARKS
CARBONDALE     CLOUDY    68  63  84 S8        30.02R
MT. VERNON     CLOUDY    70  64  83 SW9       30.02R
SALEM*         CLOUDY    73  68  86 S8        30.00S
$$

ILZ067-068-072-073-078-083-087-091-260400-
SOUTHEAST ILLINOIS

CITY           SKY/WX    TMP DP  RH WIND       PRES   REMARKS
LAWRENCEVILLE  CLOUDY    71  65  81 S12       30.03R
FLORA*         CLOUDY    71  67  88 S7        30.01S
HARRISBURG*    MOCLDY    69  67  93 S7        30.03S
ROBINSON*      CLOUDY    69  65  86 S7        30.04R
$$

ABBREVIATIONS USED IN REMARKS
   TC - TEMPERATURE IN CELSIUS
  WCI - WIND CHILL INDEX
   HX - HEAT INDEX
  VSB - VISIBILITY
$$




USA.gov is the U.S. government's official web portal to all federal, state and local government web resources and services.